Meteo pe oră la Allanche

Astăzi, 17 Ianuarie, Duminică

Timp Temperatura Precipitaţii Vânt Presiune Umiditate
00:00 -2°C° 0.5 mm 4 m/s 670 mmHg 96%
01:00 -2°C° 1.1 mm 4 m/s 669 mmHg 96%
02:00 -1°C° 1.1 mm 4 m/s 669 mmHg 97%
03:00 0°C° 1.1 mm 3 m/s 669 mmHg 97%
04:00 0°C° 0.2 mm 3 m/s 669 mmHg 98%
05:00 +1°C° 0.2 mm 2 m/s 669 mmHg 98%
06:00 +1°C° 0.2 mm 2 m/s 669 mmHg 98%
07:00 -1°C° 0 mm 2 m/s 669 mmHg 97%
08:00 -1°C° 0 mm 2 m/s 669 mmHg 96%
09:00 -1°C° 0 mm 2 m/s 670 mmHg 94%
10:00 -1°C° 0 mm 2 m/s 670 mmHg 92%
11:00 -1°C° 0 mm 2 m/s 671 mmHg 90%
12:00 0°C° 0 mm 3 m/s 671 mmHg 87%
13:00 -1°C° 0 mm 3 m/s 671 mmHg 88%
14:00 -1°C° 0 mm 3 m/s 671 mmHg 88%
15:00 -1°C° 0 mm 3 m/s 671 mmHg 88%
16:00 -4°C° 0 mm 3 m/s 671 mmHg 91%
17:00 -4°C° 0 mm 2 m/s 671 mmHg 93%
18:00 -4°C° 0 mm 1 m/s 672 mmHg 96%
19:00 -3°C° 0 mm 1 m/s 672 mmHg 96%
20:00 -3°C° 0 mm 1 m/s 672 mmHg 96%
21:00 -3°C° 0 mm 1 m/s 673 mmHg 96%
22:00 -3°C° 0 mm 1 m/s 673 mmHg 96%
23:00 -3°C° 0 mm 1 m/s 673 mmHg 96%

Mâine, 18 Ianuarie, Luni

Timp Temperatura Precipitaţii Vânt Presiune Umiditate
00:00 -3°C° 0 mm 1 m/s 673 mmHg 95%
01:00 -3°C° 0 mm 1 m/s 673 mmHg 95%
02:00 -4°C° 0 mm 1 m/s 672 mmHg 95%
03:00 -4°C° 0 mm 1 m/s 672 mmHg 95%
04:00 -4°C° 0 mm 1 m/s 672 mmHg 94%
05:00 -6°C° 0 mm 1 m/s 672 mmHg 94%
06:00 -6°C° 0 mm 1 m/s 672 mmHg 93%
07:00 -4°C° 0 mm 1 m/s 672 mmHg 92%
08:00 -3°C° 0 mm 1 m/s 673 mmHg 91%
09:00 -3°C° 0 mm 1 m/s 673 mmHg 90%
10:00 -1°C° 0 mm 1 m/s 673 mmHg 87%
11:00 -1°C° 0 mm 0 m/s 673 mmHg 84%
12:00 0°C° 0 mm 0 m/s 673 mmHg 80%
13:00 0°C° 0 mm 0 m/s 673 mmHg 81%
14:00 0°C° 0 mm 0 m/s 672 mmHg 83%
15:00 0°C° 0 mm 0 m/s 672 mmHg 84%
16:00 -2°C° 0 mm 0 m/s 672 mmHg 85%
17:00 -3°C° 0 mm 0 m/s 671 mmHg 87%
18:00 -3°C° 0 mm 1 m/s 671 mmHg 88%
19:00 -4°C° 0 mm 1 m/s 671 mmHg 84%
20:00 -4°C° 0 mm 1 m/s 671 mmHg 80%
21:00 -4°C° 0 mm 1 m/s 670 mmHg 76%
22:00 -4°C° 0 mm 1 m/s 670 mmHg 74%
23:00 -4°C° 0 mm 1 m/s 670 mmHg 71%

Poimâine, 19 Ianuarie, Marţi

Timp Temperatura Precipitaţii Vânt Presiune Umiditate
00:00 -4°C° 0 mm 1 m/s 670 mmHg 68%
01:00 -4°C° 0 mm 1 m/s 670 mmHg 67%
02:00 -4°C° 0 mm 1 m/s 669 mmHg 66%
03:00 -4°C° 0 mm 1 m/s 669 mmHg 65%
04:00 -4°C° 0 mm 1 m/s 669 mmHg 64%
05:00 -3°C° 0 mm 1 m/s 669 mmHg 63%
06:00 -3°C° 0 mm 1 m/s 669 mmHg 62%
07:00 -4°C° 0 mm 2 m/s 669 mmHg 63%
08:00 -3°C° 0 mm 2 m/s 669 mmHg 64%
09:00 -2°C° 0 mm 2 m/s 669 mmHg 64%
10:00 -1°C° 0 mm 2 m/s 668 mmHg 66%
11:00 +2°C° 0 mm 2 m/s 668 mmHg 69%
12:00 +3°C° 0 mm 2 m/s 668 mmHg 71%
13:00 +3°C° 0 mm 2 m/s 668 mmHg 73%
14:00 +3°C° 0 mm 2 m/s 667 mmHg 75%
15:00 +3°C° 0 mm 2 m/s 666 mmHg 78%
16:00 +1°C° 0 mm 2 m/s 666 mmHg 79%
17:00 -1°C° 0 mm 2 m/s 665 mmHg 81%
18:00 -3°C° 0 mm 2 m/s 665 mmHg 82%
19:00 -4°C° 0 mm 3 m/s 665 mmHg 83%
20:00 -4°C° 0 mm 3 m/s 664 mmHg 84%
21:00 -4°C° 0 mm 3 m/s 664 mmHg 84%
22:00 -2°C° 0 mm 3 m/s 664 mmHg 83%
23:00 -2°C° 0 mm 3 m/s 664 mmHg 83%

20 Ianuarie, Miercuri

Timp Temperatura Precipitaţii Vânt Presiune Umiditate
00:00 -2°C° 0 mm 2 m/s 663 mmHg 82%
01:00 -2°C° 0 mm 3 m/s 663 mmHg 82%
02:00 -2°C° 0 mm 3 m/s 662 mmHg 83%
03:00 -2°C° 0 mm 3 m/s 661 mmHg 84%
04:00 -1°C° 0 mm 3 m/s 661 mmHg 86%
05:00 -2°C° 0 mm 4 m/s 661 mmHg 88%
06:00 -1°C° 0 mm 4 m/s 660 mmHg 91%
07:00 -1°C° 0 mm 4 m/s 660 mmHg 91%
08:00 0°C° 0 mm 4 m/s 660 mmHg 91%
09:00 +1°C° 0 mm 5 m/s 660 mmHg 91%
10:00 +1°C° 0 mm 5 m/s 659 mmHg 89%
11:00 +2°C° 0 mm 6 m/s 659 mmHg 87%
12:00 +3°C° 0 mm 6 m/s 658 mmHg 85%
13:00 +2°C° 0 mm 6 m/s 658 mmHg 86%
14:00 +2°C° 0 mm 6 m/s 657 mmHg 87%
15:00 +2°C° 0 mm 5 m/s 656 mmHg 88%
16:00 +1°C° 0.2 mm 5 m/s 656 mmHg 89%
17:00 +1°C° 0.2 mm 5 m/s 656 mmHg 90%
18:00 +1°C° 0.2 mm 5 m/s 656 mmHg 91%
19:00 0°C° 0 mm 5 m/s 655 mmHg 92%
20:00 0°C° 0 mm 4 m/s 655 mmHg 92%
21:00 0°C° 0 mm 4 m/s 655 mmHg 93%
22:00 0°C° 0.4 mm 4 m/s 655 mmHg 93%
23:00 0°C° 0.4 mm 4 m/s 655 mmHg 94%

21 Ianuarie, Joi

Timp Temperatura Precipitaţii Vânt Presiune Umiditate
00:00 0°C° 0.4 mm 4 m/s 655 mmHg 94%
01:00 0°C° 1.5 mm 5 m/s 655 mmHg 95%
02:00 0°C° 1.5 mm 5 m/s 656 mmHg 96%
03:00 -1°C° 1.5 mm 6 m/s 656 mmHg 96%
04:00 -1°C° 0.7 mm 6 m/s 657 mmHg 95%
05:00 -2°C° 0.7 mm 6 m/s 658 mmHg 94%
06:00 -2°C° 0.7 mm 5 m/s 658 mmHg 94%
07:00 -2°C° 0.1 mm 5 m/s 659 mmHg 93%
08:00 -2°C° 0.1 mm 5 m/s 659 mmHg 92%
09:00 -2°C° 0.1 mm 4 m/s 660 mmHg 91%
10:00 -1°C° 0.1 mm 5 m/s 660 mmHg 89%
11:00 -1°C° 0.1 mm 5 m/s 660 mmHg 87%
12:00 0°C° 0.1 mm 5 m/s 660 mmHg 84%
13:00 0°C° 0.1 mm 4 m/s 660 mmHg 87%
14:00 -1°C° 0.1 mm 4 m/s 659 mmHg 90%
15:00 -1°C° 0.1 mm 4 m/s 659 mmHg 94%
16:00 -1°C° 0.3 mm 4 m/s 659 mmHg 94%
17:00 -1°C° 0.3 mm 4 m/s 659 mmHg 95%
18:00 -1°C° 0.3 mm 4 m/s 659 mmHg 96%
19:00 -2°C° 0.1 mm 4 m/s 658 mmHg 96%
20:00 -1°C° 0.1 mm 3 m/s 658 mmHg 96%
21:00 -1°C° 0.1 mm 3 m/s 657 mmHg 95%
22:00 -1°C° 1.4 mm 3 m/s 657 mmHg 96%
23:00 -1°C° 1.4 mm 3 m/s 656 mmHg 97%

22 Ianuarie, Vineri

Timp Temperatura Precipitaţii Vânt Presiune Umiditate
00:00 -1°C° 1.4 mm 3 m/s 656 mmHg 97%
01:00 -1°C° 0.8 mm 3 m/s 655 mmHg 97%
02:00 -1°C° 0.8 mm 4 m/s 655 mmHg 97%
03:00 -1°C° 0.8 mm 4 m/s 655 mmHg 96%
04:00 -1°C° 0.2 mm 4 m/s 655 mmHg 97%
05:00 0°C° 0.2 mm 3 m/s 654 mmHg 97%
06:00 0°C° 0.2 mm 3 m/s 654 mmHg 97%
07:00 0°C° 1 mm 3 m/s 655 mmHg 97%
08:00 -1°C° 1 mm 4 m/s 655 mmHg 97%
09:00 -1°C° 1 mm 4 m/s 655 mmHg 97%
10:00 -1°C° 0.6 mm 5 m/s 656 mmHg 95%
11:00 -1°C° 0.6 mm 5 m/s 656 mmHg 93%
12:00 -2°C° 0.6 mm 6 m/s 657 mmHg 91%
13:00 -1°C° 0.1 mm 5 m/s 657 mmHg 90%
14:00 -1°C° 0.1 mm 5 m/s 658 mmHg 89%
15:00 -1°C° 0.1 mm 4 m/s 658 mmHg 87%
16:00 -2°C° 0.1 mm 4 m/s 659 mmHg 90%
17:00 -2°C° 0.1 mm 4 m/s 660 mmHg 92%
18:00 -2°C° 0.1 mm 3 m/s 660 mmHg 95%
19:00 -2°C° 0.1 mm 3 m/s 661 mmHg 95%
20:00 -2°C° 0.1 mm 3 m/s 661 mmHg 95%
21:00 -2°C° 0.1 mm 3 m/s 662 mmHg 96%
22:00 -2°C° 0.3 mm 3 m/s 662 mmHg 96%
23:00 -2°C° 0.3 mm 3 m/s 662 mmHg 96%
Arată mai mult

Formular de consimțământ

Meteoprog și furnizorii noștri de servicii pot stoca și accesa date personale, precum cookies, identificatori de dispozitiv sau alte tehnologii similare pe dispozitivul dumneavoastră și procesa astfel de date pentru a personaliza conținutul și reclamele, dar și pentru a oferi caracteristici de social media și pentru a analiza traficul.

  • Stocarea și/sau accesarea informațiilor pe dispozitivul dumneavoastră

    Cookies, identificatori de dispozitiv sau alte informații pot fi stocate sau accesate pe dispozitiv în scopurile indicate mai sus.

  • Reclame și conținut personalizat, evaluarea reclamelor și a conținutului, informații despre audiențe și dezvoltarea produselor

    Reclamele și conținutul pot fi personalizate pe baza unui profil. Pot fi adăugate date suplimentare pentru a personaliza mai bine reclamele și conținutul. Performanța reclamelor și conținutului poate fi măsurată. Pot fi obținute informații despre utilizatorii care au văzut reclamele și conținutul. Aceste date pot fi utilizate pentru a dezvolta sau îmbunătăți experiența utilizatorilor, sistemele și software-ul.

Dând clic pe ‘Sunt de acord’, permiteți utilizarea cookie-urilor menționate, a identificatorilor de dispozitiv, balizelor web sau altor tehnologii similare. Setările pot fi modificate din browser-ul dispozitivului dumneavoastră.

În anumite scopuri, interesele legitime pot prima asupra consimțământului. Puteți citi mai multe informații în acest sens în Politica privind Confidențialitatea Datelor și Cookie.